Location: Blue Mountain Vista Observatory
(40.6992°N, 75.9422°W)
Time: 01:03:02
(UTC-04:00)

IDEFIX/ARIANE 42P - Visible Passes

Search period start: 24 August 2016 00:00
Search period end: 03 September 2016 00:00
Orbit: 785 x 804 km, 98.2° (Epoch: 23 August)

Date Brightness Start Highest point End Pass type
(mag) Time Alt. Az. Time Alt. Az. Time Alt. Az.
25 Aug 5.7 20:23:01 10° WSW 20:25:17 13° W 20:27:34 10° WNW visible
29 Aug 5.5 20:08:06 10° SW 20:11:28 17° W 20:14:51 10° NW visible
01 Sep 5.8 20:24:18 10° WSW 20:26:18 12° W 20:28:20 10° WNW visible
